[[{"header":{"parameterUnit":"m.s-1","parameterCategory":1,"la1":30.2991,"la2":30.254,"lo1":-89.0895,"lo2":-89.0444,"dy":0.0017,"dx":0.0017,"nx":28,"ny":28,"refTime":"2025-12-17T03:00:00:Z","depth":0,"parameterNumber":2,"parameterNumberName":"U-component_of_WINDS"},"data":[0,0,0,0,0,0,0,0,0,0,0,0,0,0,0,0,0,0,0,0,0,0,0,0,0,0,0,0,0,0,0,0,0,0,0,0,0,0,0,0,0,0,0,0,0,0,0,0,0,0,0,0,0,0,0,0,0,0,-2.672,-2.6721,0,-2.6792,-2.6793,-2.6794,-2.6688,-2.6685,-2.6681,-2.6677,-2.6755,-2.676,-2.6766,0,0,0,0,0,0,0,0,0,0,0,0,0,-2.6494,-2.6498,-2.672,-2.6721,-2.6722,-2.6792,-2.6793,-2.6794,-2.6689,-2.6685,-2.668,-2.6676,-2.6753,-2.676,-2.6766,0,0,0,0,0,0,0,0,0,0,0,0,0,-2.6582,-2.65,-2.672,-2.6678,-2.6675,-2.6792,-2.6793,-2.6794,-2.669,-2.6684,-2.6679,-2.6674,-2.6751,-2.6759,-2.6767,-2.693,0,0,-2.6792,-2.6796,0,0,0,0,0,0,0,0,-2.6577,-2.659,-2.6683,-2.6681,-2.6677,-2.6726,-2.6742,-2.684,-2.6691,-2.6684,-2.6677,-2.6671,-2.675,-2.6758,-2.6784,-2.6934,-2.6937,-2.6793,-2.6798,-2.6802,-2.6804,0,0,0,0,0,0,0,-2.6571,-2.6587,-2.6748,-2.6684,-2.6681,-2.6656,-2.6663,-2.676,-2.6748,-2.6684,-2.6677,-2.6687,-2.6747,-2.6776,-2.6785,-2.6938,-2.6793,-2.68,-2.6805,-2.6809,-2.7227,-2.7233,0,0,0,0,0,0,-2.6569,-2.6582,-2.6746,-2.6751,-2.6612,-2.6665,-2.6672,-2.6716,-2.6746,-2.6745,-2.6692,-2.6682,-2.6765,-2.6775,-2.6787,-2.6981,-2.6802,-2.681,-2.6814,-2.7221,-2.7228,-2.7235,0,0,0,0,0,0,-2.6565,-2.6585,-2.6743,-2.6664,-2.6683,-2.6675,-2.6725,-2.672,-2.6749,-2.6751,-2.6749,-2.6723,-2.6761,-2.6776,-2.6895,-2.6982,-2.6813,-2.6821,-2.7214,-2.7223,-2.7232,-2.737,0,0,0,0,0,0,-2.6559,-2.6584,-2.6645,-2.6667,-2.6687,-2.685,-2.673,-2.6726,-2.6763,-2.6751,-2.678,-2.678,-2.6757,-2.6884,-2.6904,-2.6991,-2.6827,-2.7206,-2.7218,-2.7229,-2.7358,-2.7383,-2.7404,0,0,0,0,0,-2.6551,-2.6681,-2.6649,-2.6669,-2.6763,-2.6855,-2.6867,-2.6837,-2.677,-2.6832,-2.6834,-2.6779,-2.6969,-2.6897,-2.6919,-2.7009,-2.72,-2.7215,-2.7228,-2.7347,-2.7378,-2.7404,0,0,0,0,0,0,-2.6671,-2.6683,-2.6647,-2.6788,-2.6821,-2.6837,-2.6914,-2.6871,-2.6924,-2.6911,-2.6873,-2.688,-2.7009,-2.7021,-2.694,-2.7169,-2.7074,-2.7093,-2.7157,-2.7186,-2.7209,-2.7204,-2.6834,0,0,0,0,0,-2.6714,-2.6786,-2.6793,-2.6917,-2.6936,-2.6923,-2.6961,-2.6936,-2.6969,-2.6983,-2.6993,-2.7028,-2.7096,-2.7142,-2.7204,-2.7358,-2.7364,-2.7432,-2.7455,-2.7474,-2.7491,-2.7576,-2.7606,-2.728,-2.728,-2.728,0,0,-2.6803,-2.6819,-2.6867,-2.6942,-2.6964,-2.7042,-2.6935,-2.7021,-2.7078,-2.6996,-2.711,-2.7119,-2.7156,-2.7295,-2.7356,-2.7308,-2.7582,-2.7492,-2.7507,-2.7514,-2.7593,-2.7624,-2.7651,-2.729,-2.7288,-2.7287,0,0,-2.7006,-2.7024,-2.713,-2.7155,-2.719,-2.718,-2.7206,-2.7229,-2.7232,-2.7345,-2.7285,-2.7354,-2.7471,-2.75,-2.753,-2.7745,-2.7697,-2.7766,-2.7888,-2.7971,-2.7997,-2.8019,-2.8097,-2.8126,-2.7783,-2.7783,-2.7784,0,-2.7112,-2.7225,-2.719,-2.728,-2.7316,-2.7244,-2.7352,-2.7378,-2.7433,-2.7459,-2.7404,-2.7551,-2.757,-2.7715,-2.7768,-2.7794,-2.7824,-2.7763,-2.7996,-2.8018,-2.8038,-2.8113,-2.8142,-2.7792,-2.7791,-2.779,-2.7789,0,-2.7356,-2.7435,-2.7516,-2.757,-2.7615,-2.7713,-2.7694,-2.7744,-2.7715,-2.7711,-2.7829,-2.785,-2.7916,-2.7948,-2.7921,-2.809,-2.806,-2.8001,-2.7905,-2.8078,-2.8148,-2.8176,-2.7804,-2.7801,-2.7798,-2.7796,0,0,-2.7636,-2.7669,-2.77,-2.7724,-2.7758,-2.782,-2.7916,-2.7979,-2.8023,-2.8064,-2.8144,-2.8246,-2.8192,-2.8226,-2.8202,-2.8274,-2.8445,-2.8206,-2.8207,-2.8251,-2.8635,-2.8679,-2.8713,-2.8412,-2.8418,-2.8422,-2.8632,0,-2.7839,-2.8004,-2.7975,-2.8136,-2.821,-2.8143,-2.8227,-2.8258,-2.8258,-2.8322,-2.8321,-2.8394,-2.8317,-2.8338,-2.8406,-2.8409,-2.8521,-2.8394,-2.8489,-2.8493,-2.8483,-2.8748,-2.8796,-2.8993,-2.8659,-2.8663,-2.8666,0,-2.8097,-2.8147,-2.8315,-2.8339,-2.8369,-2.8445,-2.8502,-2.8563,-2.8597,-2.8592,-2.8631,-2.8593,-2.869,-2.8592,-2.8726,-2.864,-2.8677,-2.8685,-2.8692,-2.8701,-2.8591,-2.8766,-2.9055,-2.9086,-2.8708,-2.8705,-2.8702,0,-2.8287,-2.8396,-2.8511,-2.8533,-2.8563,-2.8619,-2.8634,-2.8662,-2.8703,-2.8753,-2.8779,-2.8841,-2.8875,-2.8924,-2.8904,-2.8833,-2.9043,-2.8942,-2.9043,-2.9044,-2.9091,-2.9089,-2.9392,-2.9113,-2.9113,-2.9112,-2.9111,0,-2.8517,-2.8623,-2.8596,-2.8667,-2.8785,-2.8751,-2.8869,-2.8876,-2.8902,-2.8974,-2.892,-2.899,-2.8959,-2.9026,-2.9012,-2.9126,-2.9142,-2.9141,-2.9137,-2.9147,-2.9148,-2.9172,-2.9158,-2.912,-2.9118,-2.9117,-2.9115,0,-2.8749,-2.8735,-2.8856,-2.8875,-2.8882,-2.8968,-2.8984,-2.9052,-2.9047,-2.9139,-2.9159,-2.9153,-2.923,-2.9215,-2.9299,-2.9289,-2.9434,-2.9411,-2.9422,-2.9417,-2.952,-2.9511,-2.9851,-2.9894,-2.9586,-2.9589,-2.9591,0,-2.8897,-2.8977,-2.9005,-2.9049,-2.9068,-2.914,-2.9181,-2.9152,-2.9197,-2.9243,-2.9305,-2.9377,-2.9433,-2.9559,-2.9563,-2.9628,-2.9608,-2.9722,-2.9617,-2.9626,-2.9611,-2.9607,-2.9616,-2.9744,-2.9747,-2.975,-2.9752,0,-2.9163,-2.9152,-2.9213,-2.9273,-2.9323,-2.9369,-2.9409,-2.9449,-2.9423,-2.9477,-2.9555,-2.9598,-2.9685,-2.9758,-2.9818,-2.9835,-2.9791,-2.9785,-2.9812,-2.9825,-2.9828,-2.9829,-2.9481,-2.9778,-2.9775,-2.9773,-2.9772,-2.9771,-2.9359,-2.9427,-2.9458,-2.9528,-2.9555,-2.9594,-2.9659,-2.9662,-2.9726,-2.9794,-2.9773,-2.9862,-2.9895,-2.9972,-2.9996,-3.0066,-3.0023,-3.0062,-3.0072,-3.0083,-3.0096,-2.9816,-3.0077,-3.0076,-3.0075,-3.0075,-3.0074,0,-2.9623,-2.9639,-2.9704,-2.9762,-2.9818,-2.977,-2.9812,-2.9863,-2.9941,-2.9976,-3.0032,-3.0122,-3.0193,-3.0202,-3.0269,-3.0324,-3.0305,-3.0343,-3.0339,-3.0344,-3.0129,-3.01,-3.0357,-3.0357,-3.0357,-3.0357,-3.0356,-3.0356,-2.9767,-2.9881,-2.9874,-3.0002,-3.0017,-3.0103,-3.0132,-3.0169,-3.0196,-3.0299,-3.0357,-3.0362,-3.0388,-3.0456,-3.0519,-3.052,-3.0548,-3.0594,-3.0588,-3.0387,-3.0359,-3.0332,-3.0304,-3.06,-3.06,-3.0797,-3.0799,-3.08]},{"header":{"parameterUnit":"m.s-1","parameterCategory":1,"la1":30.2991,"la2":30.254,"lo1":-89.0895,"lo2":-89.0444,"dy":0.0017,"dx":0.0017,"nx":28,"ny":28,"refTime":"2025-12-17T03:00:00:Z","depth":0,"parameterNumber":3,"parameterNumberName":"V-component_of_WINDS"},"data":[0,0,0,0,0,0,0,0,0,0,0,0,0,0,0,0,0,0,0,0,0,0,0,0,0,0,0,0,0,0,0,0,0,0,0,0,0,0,0,0,0,0,0,0,0,0,0,0,0,0,0,0,0,0,0,0,0,0,0.3453,0.3452,0,0.341,0.341,0.3409,0.342,0.3421,0.3422,0.3423,0.3374,0.3372,0.337,0,0,0,0,0,0,0,0,0,0,0,0,0,0.354,0.3538,0.3453,0.3452,0.3452,0.341,0.341,0.3409,0.342,0.3421,0.3422,0.3423,0.3375,0.3372,0.337,0,0,0,0,0,0,0,0,0,0,0,0,0,0.35,0.3537,0.3453,0.3453,0.3452,0.3411,0.341,0.3409,0.342,0.3421,0.3423,0.3424,0.3376,0.3372,0.3369,0.3324,0,0,0.336,0.3358,0,0,0,0,0,0,0,0,0.3502,0.3497,0.3453,0.3452,0.3452,0.3422,0.3422,0.338,0.342,0.3432,0.3423,0.3424,0.3389,0.3384,0.3373,0.3322,0.332,0.3359,0.3358,0.3356,0.3355,0,0,0,0,0,0,0,0.3505,0.3498,0.3436,0.3452,0.3452,0.3453,0.3449,0.3414,0.3403,0.3431,0.3432,0.3427,0.3388,0.3376,0.3372,0.3319,0.336,0.3357,0.3355,0.3354,0.3228,0.3226,0,0,0,0,0,0,0.3509,0.3501,0.3437,0.3435,0.3481,0.345,0.3446,0.343,0.3404,0.3401,0.3426,0.3427,0.3381,0.3376,0.3371,0.3316,0.3356,0.3353,0.3351,0.3229,0.3228,0.3226,0,0,0,0,0,0,0.351,0.3503,0.3439,0.3468,0.346,0.3448,0.343,0.3429,0.3417,0.34,0.3398,0.3416,0.3382,0.3375,0.3336,0.3314,0.3352,0.3349,0.3231,0.3229,0.3227,0.3206,0,0,0,0,0,0,0.3513,0.3504,0.3487,0.3468,0.3458,0.3406,0.3429,0.3427,0.3412,0.3414,0.339,0.3387,0.3383,0.3341,0.3333,0.3311,0.3347,0.3233,0.323,0.3227,0.3208,0.3203,0.3199,0,0,0,0,0,0.3516,0.3482,0.3486,0.3479,0.3438,0.3405,0.34,0.3396,0.341,0.3393,0.3382,0.3388,0.3318,0.3337,0.3328,0.3304,0.3234,0.3231,0.3228,0.321,0.3204,0.3199,0,0,0,0,0,0,0.3497,0.3479,0.3484,0.3443,0.3426,0.3407,0.3385,0.339,0.3367,0.3369,0.3365,0.3359,0.3319,0.3308,0.3329,0.3259,0.3278,0.3273,0.3268,0.3262,0.3257,0.326,0.3344,0,0,0,0,0,0.3489,0.3465,0.345,0.3415,0.3406,0.3397,0.3383,0.3382,0.3363,0.3355,0.3342,0.3322,0.3296,0.3278,0.3253,0.3207,0.3201,0.3187,0.3182,0.3178,0.3173,0.3147,0.314,0.3215,0.3215,0.3215,0,0,0.347,0.3457,0.3442,0.3411,0.3398,0.3372,0.3391,0.3363,0.3343,0.3351,0.3313,0.3303,0.328,0.3237,0.3218,0.3227,0.3151,0.3174,0.3171,0.3168,0.3143,0.3136,0.313,0.3213,0.3213,0.3214,0,0,0.3423,0.3411,0.3381,0.3368,0.3348,0.3342,0.3335,0.3316,0.3309,0.3272,0.3277,0.3253,0.3208,0.3192,0.3178,0.3125,0.3129,0.3117,0.3091,0.3067,0.3061,0.3055,0.3036,0.3029,0.3113,0.3113,0.3113,0,0.3402,0.3365,0.3364,0.3336,0.3321,0.3329,0.3298,0.3284,0.3256,0.3246,0.3257,0.32,0.3186,0.3139,0.3127,0.3115,0.3105,0.3119,0.3062,0.3057,0.3052,0.3033,0.3025,0.3111,0.3111,0.3111,0.3112,0,0.3339,0.3313,0.3291,0.3266,0.3249,0.3219,0.3213,0.3196,0.3197,0.3189,0.3151,0.3134,0.3105,0.3095,0.3094,0.3048,0.3054,0.3063,0.3082,0.3043,0.3025,0.3018,0.3109,0.311,0.311,0.311,0,0,0.3277,0.3254,0.3246,0.3234,0.3213,0.3192,0.3163,0.3137,0.3121,0.3102,0.3076,0.3038,0.3047,0.3031,0.3029,0.3008,0.2966,0.302,0.3019,0.3009,0.2913,0.2905,0.2897,0.297,0.2968,0.2967,0.2914,0,0.3228,0.3177,0.3176,0.3129,0.3104,0.3112,0.3086,0.3069,0.3062,0.3039,0.303,0.3003,0.3018,0.3008,0.2987,0.2976,0.2947,0.298,0.2943,0.2942,0.2948,0.2888,0.2879,0.283,0.2907,0.2906,0.2905,0,0.3163,0.3143,0.3094,0.3077,0.3067,0.3043,0.3019,0.2998,0.2979,0.2975,0.2958,0.296,0.2928,0.2949,0.2904,0.2926,0.2911,0.2904,0.2902,0.2897,0.2921,0.288,0.2814,0.2807,0.2895,0.2895,0.2896,0,0.3122,0.3083,0.3049,0.3039,0.3018,0.3002,0.2992,0.2975,0.2959,0.2938,0.2928,0.2902,0.2888,0.2867,0.2862,0.2878,0.2816,0.2837,0.2811,0.2811,0.2796,0.2797,0.2726,0.2789,0.2789,0.2789,0.2789,0,0.3066,0.3035,0.303,0.3009,0.2974,0.2973,0.2939,0.293,0.2915,0.2891,0.2895,0.2872,0.2867,0.2842,0.2837,0.2801,0.2794,0.2789,0.2788,0.2788,0.2788,0.2777,0.278,0.2787,0.2788,0.2788,0.2788,0,0.3014,0.301,0.2972,0.2957,0.2952,0.2927,0.2913,0.2891,0.2885,0.2855,0.2848,0.2837,0.2809,0.2801,0.2767,0.2763,0.272,0.2722,0.2726,0.2726,0.27,0.2702,0.2618,0.2607,0.2678,0.2677,0.2677,0,0.2978,0.2954,0.2937,0.2922,0.2912,0.2888,0.2873,0.2871,0.2854,0.2832,0.2813,0.2785,0.2763,0.2717,0.2705,0.2678,0.268,0.2652,0.2675,0.2676,0.2678,0.2679,0.2676,0.2647,0.2646,0.2646,0.2645,0,0.2914,0.2913,0.2892,0.287,0.2852,0.2834,0.2816,0.2803,0.2799,0.278,0.2752,0.2735,0.2701,0.2673,0.2646,0.2635,0.2638,0.2638,0.2631,0.263,0.2633,0.263,0.2713,0.264,0.264,0.2641,0.2641,0.2641,0.2868,0.2847,0.2832,0.2808,0.2795,0.2779,0.2759,0.2751,0.2728,0.2701,0.2701,0.267,0.2651,0.2617,0.2604,0.2578,0.2586,0.2575,0.2572,0.2569,0.2567,0.2638,0.2573,0.2574,0.2574,0.2574,0.2574,0,0.2803,0.2794,0.2772,0.2749,0.273,0.2738,0.2719,0.2702,0.2675,0.2659,0.2637,0.2605,0.2578,0.2565,0.2538,0.252,0.2521,0.2513,0.2513,0.251,0.2562,0.257,0.2512,0.2512,0.2512,0.2512,0.2512,0.2512,0.2767,0.2733,0.2731,0.269,0.2681,0.2652,0.2641,0.2625,0.2612,0.2576,0.2555,0.2547,0.2531,0.2503,0.2479,0.2475,0.2464,0.2455,0.2452,0.25,0.2507,0.2512,0.2521,0.2453,0.2453,0.2403,0.2403,0.2402]}]]